Other Surface Observations
Issued by NWS Tucson, AZ

Home | Current Version | Previous Version | Text Only | Print | Product List | Glossary On
Versions: 1 2 3 4 5 6 7 8 9 10 11 12 13 14 15 16 17 18 19 20 21 22 23 24 25 26 27 28 29 30 31 32 33 34 35 36 37 38 39 40 41 42 43 44 45 46 47 48 49 50
853
SXUS55 KTWC 201915
OSOTWC

WEATHER ROUNDUP FOR SOUTHEAST ARIZONA
NATIONAL WEATHER SERVICE TUCSON AZ
1215 PM MST MON NOV 20 2017

AZZ504>506-514-202015-
LOCATION       SKY/WX    TMP DP  RH WIND       PRES   REMARKS
TUCSON         SUNNY     74  25  16 CALM      30.09F
DAVIS-MONTHAN  SUNNY     76  25  15 CALM      30.07F
CHILDRENS PARK N/A      N/A N/A  23 SE1               PIMA CO DEQ
ALVERNON/22ND  N/A       69 N/A N/A S5                PIMA CO DEQ
CHERRY/GLENN   N/A       70 N/A N/A NE1               PIMA CO DEQ
TANGERINE      N/A       68 N/A N/A SE4               PIMA CO DEQ
CONTL RANCH    N/A       67  27  22 SE6               PIMA CO DEQ
GRANT/1ST      N/A       68  27  21 SE2               PIMA CO DEQ
CRAYCROFT/22ND N/A       69  26  20 SW4               PIMA CO DEQ
GOLFLINKS/KOLB N/A       71  27  19 S5                PIMA CO DEQ
AJO/12TH       N/A       69  29  22 SE4               PIMA CO DEQ
FAIRGROUNDS    N/A       69 N/A N/A SE9               PIMA CO DEQ
SAGUARO        N/A       75  27  17 W3                *SABINO CYN
SAN CARLOS     N/A       63  19  18 CALM              *SAN CARLOS
GREEN VALLEY   N/A       71  28  20 S7                PIMA CO DEQ
HORSE CAMP CYN N/A       63  21  20 E9G16             *ARAVAIPA CYN
RINCON MTNS    N/A       59  13  16 W2                *NR MANNING CAMP
$$

AZZ509>511-202015-
LOCATION       SKY/WX    TMP DP  RH WIND       PRES   REMARKS
SAFFORD        MOSUNNY   63  17  17 S3        30.12F
STRAY HORSE    N/A       57   8  14 SW3G10            *
TRAIL CABIN    N/A       59  19  21 NW4G10            *N OF GRANVILLE
BLACK HILLS    NOT AVBL
DRY LAKE       N/A       61  15  16 N2                *NATANES MTNS
NOON CREEK     N/A       60  19  20 NE4               *PINALENO MTNS
COLUMBINE      N/A       58 -12   5 W4G10             *PINALENO MTNS
GUTHRIE        N/A       54  15  21 SW5               *SW OF GUTHRIE
$$

AZZ502-503-513-202015-
LOCATION       SKY/WX    TMP DP  RH WIND       PRES   REMARKS
NOGALES        SUNNY     74  25  16 MISG      30.12F
SELLS          N/A       75  24  15 NE3               *
SASABE         N/A       77  27  16 SW6G12            *ALTAR VLY
HOPKINS        N/A       66  25  21 W5                *SANTA RITA MTNS
CARR CYN       N/A       70  29  22 NE3               *W OF HEREFORD
$$

AZZ507-508-512-202015-
LOCATION       SKY/WX    TMP DP  RH WIND       PRES   REMARKS
SIERRA VISTA   SUNNY     69  24  18 NE5       30.16F
DOUGLAS        MOSUNNY   66  25  21 SE6       30.14F
EMPIRE MTNS    NOT AVBL
MULESHOE RANCH N/A       67  25  20 S4                *PRESERVE
HEADQUARTERS   N/A       65  22  19 W5G10             *CHIRICAHUA MTNS
$$

.............................NOTES.............................
THIS IS AN AUTOMATED COLLECTIVE WITH MINIMAL QUALITY CONTROL.
PIMA CO DEQ SITES HAVE NONSTANDARD WIND SENSOR HEIGHTS.
PIMA CO DEQ SITES DO NOT REPORT WIND GUSTS.
* INDICATES WIND SENSORS LOCATED AT 20 FEET INSTEAD OF 33 FEET.
..............................KEY..............................
SKY/WX - SKY CONDITION/WEATHER
TMP    - TEMPERATURE IN FAHRENHEIT
DP     - DEWPOINT IN FAHRENHEIT
RH     - RELATIVE HUMIDITY IN PERCENT
WIND   - DIRECTION AND SPEED IN MILES PER HOUR (MPH)
VRB    - VARIABLE WIND DIRECTION
PRES   - MEAN SEA LEVEL PRESSURE IN INCHES OF MERCURY
         F - FALLING PRESSURE   R - RISING PRESSURE
         S - STEADY PRESSURE
VSB    - VISIBILITY IN MILES
HX     - HEAT INDEX IN FAHRENHEIT
WCI    - WIND CHILL INDEX IN FAHRENHEIT
N/A    - NOT AVAILABLE
AFB    - AIR FORCE BASE
         DAVIS-MONTHAN IS DAVIS-MONTHAN AIR FORCE BASE
CYN    - CANYON
MTNS   - MOUNTAINS
NCA    - NATIONAL CONSERVATION AREA
NR     - NEAR
VLY    - VALLEY
CONTL  - CONTINENTAL
PIMA CO DEQ - PIMA COUNTY DEPT OF ENVIRONMENTAL QUALITY



USA.gov is the U.S. government's official web portal to all federal, state and local government web resources and services.